OV1-19 R/B, 3827

Orbit data source: Space-Track

OV1-19 R/B, 3827 is space debris originally from a launch on Tue, 18 Mar 1969 UTC launched from the Air Force Western Test Range (AFWTR). Debris objects in space refer to the collection of defunct objects orbiting the Earth. Examples of debris include non-operational satellites, rocket bodies, and fragments generated from explosions, collisions, or faulty payload assembly.

Loading next visibility...
Identifier
3827, 1969-025E
Orbit
Active
Country
Flag of USUS
Related business
Manufacturer
UTC
Mission
Spacecraft
Bus & Motor
FW4, Unknown motor
Mass
125 kg wet, 125 kg dry
Launch date (UTC)
1969-03-18 (57 years ago)
Launch vehicle
Unknown
Launch site
Air Force Western Test Range (AFWTR)
Object type
Payload
Rocket body
Debris
Shape & HBR
Unknown
Radar Cross Section
Large (>1 m²)

Expand to show TLE details & history
Last TLE update: 1 day ago

TLE from 1 day ago
0 OV1-19 R/B
1 03827U 69025E   26094.38778747  .00000518  00000-0  27786-3 0  9991
2 03827 104.7240  70.5733 2612418 222.9387 113.5547  9.69900986992936
Epoch: 2026-04-04T09:18Z
TLE epoch observation values (Epoch: 2026-04-04T09:18:24.837Z)
Latitude
-0.00004°
Longitude
98.26154°
Altitude
4,328.177 km
Speed
5.618 km/s
True Right ascension
04h 42m 17s
True Declination
0° 00' 00"
Sunlit
Object was in daylight at epoch
Visualization orbit readout
Latitude
Unknown
Longitude
Unknown
Altitude
Unknown
Speed
Unknown
Apparent Right ascension
Unknown
Apparent Declination
Unknown
Sunlit
N/A
Visualization observer readout
Local Sidereal Time
19:29:03
Azimuth
Unknown
Elevation
Unknown
Doppler factor
Unknown
Orbital elements
Apogee altitude
5,333.461 km
Perigee altitude
481.8 km
Semi-major axis
9,285.767 km
Eccentricity
0.26124
Inclination
104.724°
RAAN
70.5733°
Arg. of periapsis
222.9387°
True anomaly
137.14873°
Mean anomaly
113.5547°
Eccentric anomaly
125.70868°
Mean motion
2.42558 °/min
Orbital period
148.42 mins
BSTAR
0.00027786
Loading maneuver chart data...
Computing Atmospheric mass density...
Loading historical data...
Loading historical data...
Loading historical data...
Loading historical data...
Loading historical data...
Loading historical data...
Loading historical data...

Documentation

Showing up to 5 results
|